Tracking 17925 objects as of 19-February-2017
HD Live streaming from Space Station
objects crossing your sky now

COSMOS 2251 DEB

Track COSMOS 2251 DEB now!
10-day predictions


NORAD ID: 34781
Int'l Code: 1993-036AAJ
Perigee: 275.1 km
Apogee: 302.4 km
Inclination: 74.0 °
Period: 90.1 minutes
Semi major axis: 6659 km
RCS: 0.0067 m2 (small)
Launch date: June 16, 1993
Source: Commonwealth of Independent States (former USSR) (CIS)
Launch site: PLESETSK MISSILE AND SPACE COMPLEX (PKMTR)

Note: This is SATELLITE DEBRIS
Your satellite tracking list
Your tracking list is empty





NASA's NSSDC Master Catalog

Two Line Element Set (TLE):
1 34781U 93036AAJ 17032.36988986  .03861703  20161-1  10457-1 0  9991
2 34781  74.0052 148.6330 0020504 347.8556  12.2184 15.97403810421538
Source of the keplerian elements: AFSPC